Location: *
(21.4500°S, 102.0500°E)
Time: 12:43:18
(UTC+00:00)

Daily predictions for brighter satellites

Satellite Brightness Start Highest point End
(mag) Time Altitude Azimuth Time Altitude Azimuth Time Altitude Azimuth
CZ-2D R/B 3.6 12:03:19 40° E 12:03:44 41° E 12:07:23 10° N
Cosmos 1726 Rocket 3.4 12:00:16 10° N 12:04:40 73° E 12:08:16 15° S
Cosmos 1386 Rocket 4.5 12:00:38 10° S 12:06:52 62° E 12:13:08 10° NNE
Lacrosse 5 3.8 12:03:29 10° S 12:04:35 14° SSE 12:04:35 14° SSE
IRS-1C Rocket 4.3 12:02:07 10° S 12:07:25 74° WSW 12:12:39 10° NNW
CZ-4 R/B 4.3 12:06:01 25° SSE 12:08:24 70° E 12:12:32 10° N
FUSE 3.9 12:07:01 10° WNW 12:12:26 84° SSW 12:14:19 42° ESE
Timation 1 Rocket 4.2 12:07:49 10° N 12:13:45 72° ENE 12:17:16 26° SSE
USA 215 3.4 12:13:38 26° ENE 12:17:01 48° SE 12:23:14 10° SSW
Centaur AC-119 2.8 12:07:08 10° W 12:17:33 66° SSW 12:18:30 49° SE
Cosmos 1328 4.4 12:19:03 41° NE 12:19:03 41° NE 12:21:50 10° NNE
Cosmos 372 Rocket 4.0 12:14:00 10° N 12:19:08 58° ENE 12:20:21 46° SE
Cosmos 923 Rocket 3.8 12:15:03 10° S 12:20:17 73° ESE 12:25:28 10° NNE
YAOGAN 1 2.6 12:21:39 56° ENE 12:21:39 56° ENE 12:25:41 10° N
Skynet4D Del rocket 4.3 12:19:37 10° W 12:25:39 55° S 12:27:36 42° SE
Cosmos 1980 4.2 12:22:04 10° SSW 12:27:38 58° WNW 12:33:10 10° N
Cosmos 1758 Rocket 3.7 12:23:10 10° S 12:27:40 76° W 12:32:09 10° N
Cosmos 2228 4.5 12:24:55 10° NNW 12:29:00 37° W 12:33:06 10° SSW
Cosmos 2227 4.1 12:34:01 10° NNW 12:39:42 87° ENE 12:40:40 63° SSE
Meteor 1-11 4.0 12:36:26 10° S 12:42:04 80° E 12:47:40 10° N
Cosmos 2237 Rocket 3.3 12:38:02 10° SW 12:43:23 43° WNW 12:48:43 10° N
H-2A R/B 4.1 12:47:16 16° NNE 12:47:16 16° NNE 12:48:28 10° NNE
Cosmos 1300 4.1 12:43:20 10° NNW 12:45:53 36° NW 12:45:53 36° NW
Yuri Rocket 4.4 12:52:30 10° W 12:55:35 37° SW 12:55:35 37° SW
Cosmos 2263 Rocket 2.4 12:54:11 10° NNW 12:59:38 68° W 12:59:38 68° W
CZ-2C R/B 4.4 13:03:27 33° N 13:03:27 33° N 13:06:28 10° N
CZ-2C R/B 3.4 12:56:24 10° N 13:01:21 48° W 13:06:24 10° SSW
CSL-04 Rocket 4.2 13:07:51 55° NW 13:07:51 55° NW 13:12:11 10° NNW
Palapa 6 Rocket 4.2 13:03:56 10° W 13:09:27 59° W 13:09:27 59° W
CZ-4 R/B 4.4 13:24:40 14° W 13:24:40 14° W 13:26:13 10° WNW
Atlas Centaur 2 4.5 20:34:52 28° SE 20:34:52 28° SE 20:38:41 10° ESE
Hubble Space Telescope 3.9 21:15:50 12° ESE 21:15:50 12° ESE 21:16:11 10° ESE
SJ 16-02 4.2 21:22:07 10° SE 21:24:04 13° ESE 21:26:11 10° E
Cosmos 2297 Rocket 2.6 21:29:04 58° E 21:29:04 58° E 21:34:17 10° NNE
Centaur D-1AR AC-48 3.2 21:34:23 48° NNW 21:34:23 48° NNW 21:38:16 10° NE
H-2A R/B 3.9 21:41:45 10° NNE 21:44:02 32° NE 21:44:02 32° NE
ALOS 4.4 21:47:24 10° N 21:48:19 16° N 21:48:19 16° N
Aurora 2 Rocket 4.2 21:50:06 49° WSW 21:53:13 80° S 22:01:01 10° E
Delta 168 3.7 21:57:47 62° WSW 21:58:51 78° SSW 22:03:50 10° ESE
Cosmos 1627 Rocket 4.4 21:53:41 10° N 21:59:49 85° E 22:06:06 10° S
Okean O Rocket 3.8 21:57:09 10° NE 22:00:43 24° ESE 22:04:18 10° SSE
GPS 2-15 Rocket1 4.1 22:01:25 36° NNW 22:01:32 36° NNW 22:05:54 10° NE
PSLV R/B 4.0 21:57:45 10° NNE 22:01:43 70° ESE 22:01:46 69° ESE
Cosmos 2208 Rocket 4.0 21:59:09 10° N 22:04:21 79° ENE 22:09:34 10° SSE
ATLAS 5 CENTAUR R/B 3.2 21:58:01 10° NNW 22:05:06 62° ENE 22:12:06 10° SE
Cosmos 1814 Rocket 4.1 22:00:30 10° N 22:05:42 75° ENE 22:11:02 10° SSE
Cosmos 1470 3.1 22:07:08 42° SSE 22:08:15 62° E 22:12:03 10° NNE
Cosmos 2227 Rocket 2.2 22:12:14 46° SW 22:13:36 58° WNW 22:19:08 10° N
Cosmos 1980 Rocket 4.3 22:20:16 11° SSW 22:20:16 11° SSW 22:20:35 10° S
Cosmos 2082 3.8 22:13:53 18° SSW 22:18:18 77° ESE 22:23:59 10° NNE
Delta 7925 Rocket 3.6 22:18:26 42° SSW 22:19:21 48° S 22:23:54 10° E
Atlas Centaur 2 3.6 22:17:27 29° SW 22:21:21 46° S 22:28:51 10° ESE
ARIANE 5 R/B 4.2 22:19:42 10° NNW 22:23:16 20° NNE 22:32:40 10° ENE
Cosmos 1689 Rocket 2.9 22:23:10 10° SSE 22:26:09 52° E 22:29:04 10° N
PAYLOAD B 4.2 22:21:27 10° NNE 22:26:57 89° WNW 22:32:31 10° SSW
Cosmos 1455 Rocket 3.2 22:26:27 43° WSW 22:27:07 47° W 22:31:16 10° NNW
SMAP 4.3 22:27:02 10° NE 22:31:24 41° ESE 22:35:47 10° S
Cosmos 540 Rocket 3.7 22:28:05 10° NW 22:33:00 44° WSW 22:37:58 10° S
Cosmos 1898 Rocket 3.9 22:28:13 10° S 22:33:34 68° ESE 22:38:51 10° NNE
NOSS 3-1 (C) 3.7 22:28:47 10° SSW 22:34:21 56° ESE 22:39:23 10° NE
Cosmos 1570 Rocket 4.5 22:29:44 10° NW 22:34:39 37° WSW 22:39:37 10° S
Cosmos 2219 4.4 22:36:29 22° WNW 22:36:29 22° WNW 22:40:42 10° NNW
Cosmos 841 Rocket 4.0 22:35:07 10° NW 22:39:53 35° WSW 22:44:43 10° S
SL-16 R/B 2.1 22:35:10 10° NNW 22:40:48 74° WSW 22:46:30 10° SSE
Cosmos 1025 Rocket 4.4 22:39:39 10° NW 22:41:45 20° WNW 22:41:45 20° WNW
Cosmos 2026 Rocket 4.4 22:37:50 10° NNW 22:43:24 38° W 22:49:07 10° SSW
Cosmos 1953 2.6 22:40:02 10° S 22:44:03 69° E 22:47:59 10° NNE
CZ-4B R/B 3.2 22:44:03 10° N 22:49:30 78° WNW 22:55:08 10° SSW
Hubble Space Telescope 1.5 22:51:11 22° WSW 22:53:22 39° S 22:57:17 10° ESE
USA 229 DEB 3.7 22:47:12 10° SSW 22:53:48 75° ESE 23:00:10 10° NNE
USA 229 3.8 22:47:19 10° SSW 22:53:55 74° ESE 23:00:16 10° NNE
AQUARIUS 4.4 22:52:45 10° NNE 22:57:14 76° ESE 23:01:46 10° S
ASTEX 1 4.1 22:54:34 10° NNE 22:59:21 58° E 23:04:12 10° S
H-2A R/B 3.5 22:58:08 10° NNW 23:01:41 34° W 23:05:17 10° SSW
Meteor 2-19 Rocket 4.4 22:56:01 10° N 23:02:10 84° W 23:08:24 10° S
Cosmos 1674 3.0 22:59:04 10° NNW 23:02:34 40° W 23:06:08 10° SSW
SJ 16-02 2.2 22:59:11 13° SW 23:02:35 31° W 23:06:28 10° NNW
Cosmos 1818 3.9 22:58:54 10° NW 23:03:58 42° WSW 23:09:05 10° S
Aureole 3 Rocket 3.5 22:59:43 10° S 23:04:11 73° W 23:10:25 10° N
Cosmos 1937 Rocket 3.4 22:59:19 10° SSW 23:04:31 83° WNW 23:09:42 10° N
GPS 2-18 Rocket1 3.3 23:02:05 15° W 23:05:14 66° N 23:09:09 10° ENE
NOSS 3-1 (A) 3.7 22:59:59 10° SSW 23:05:34 58° ESE 23:10:38 10° NE
Meteor 1-24 Rocket 4.2 23:01:25 10° N 23:06:47 63° E 23:12:05 10° SSE
COSMO-SKYMED 1 2.7 23:02:41 10° SSE 23:07:05 83° E 23:11:26 10° N
Cosmos 1726 2.4 23:04:02 10° SSW 23:07:38 44° W 23:11:11 10° NNW
Cosmos 1340 Rocket 3.9 23:05:42 10° SW 23:09:05 25° W 23:12:27 10° NNW
SL-24 R/B - RUBIN 2 3.8 23:03:48 10° NNW 23:09:06 69° WSW 23:13:48 10° SSE
NOSS 2-3 (C) 4.5 23:04:03 10° SSW 23:09:42 60° ESE 23:14:12 10° NE
Timation 1 Rocket 4.4 23:05:01 10° SSW 23:11:04 86° ESE 23:17:03 10° NNE
Cosmos 1437 3.7 23:08:47 10° NW 23:11:14 23° W 23:13:44 10° SSW
Helios 1A Rocket 3.7 23:07:57 10° NNE 23:11:54 55° ESE 23:15:55 10° S
Cosmos 2297 Rocket 4.0 23:11:06 10° W 23:12:10 11° W 23:13:14 10° WNW
OAO 3 Rocket 4.2 23:12:11 10° SW 23:16:45 38° SSE 23:21:13 10° E
Meteosat 1 Rocket2 3.5 23:16:51 10° WSW 23:20:27 46° SSE 23:24:54 10° E
Cosmos 2322 Rocket 2.7 23:15:33 10° NW 23:20:45 37° WSW 23:26:01 10° S
Cosmos 1655 Rocket 4.2 23:15:18 10° NNW 23:21:18 48° W 23:27:20 10° S
Meteor 2-5 Rocket 3.8 23:17:16 10° NNW 23:22:47 60° W 23:28:18 10° S
Cosmos 2266 Rocket 4.1 23:20:50 10° NNW 23:27:05 62° W 23:33:19 10° S
Cosmos 2227 4.4 23:23:33 10° SSW 23:29:13 82° ESE 23:34:53 10° NNE
Envisat 3.6 23:25:35 10° NNW 23:30:12 36° W 23:34:53 10° SSW
